K0CPM-2 Weather Reports


Display with metric or nautical units.
time (UTC)temp
F
wind
direction
speed
MPH
gust
MPH
rain 1hr
in
rain 24hr
in
rain mn
in
humidity
%
barometer
mb
20260509181557 66 165 0.0 1.0 0.09 2.15 1.42 89 1010.0
20260509180056 66 296 0.0 3.0 0.21 2.14 1.41 89 1010.1
20260509174557 66 4 0.0 1.0 0.31 2.13 1.40 89 1010.1
20260509173105 66 234 0.0 1.0 0.34 2.11 1.38 89 1010.6
20260509171607 65 294 0.0 1.0 0.31 2.06 1.33 89 1010.7
20260509170054 65 101 0.0 1.0 0.22 1.92 1.19 89 1010.8
20260509164555 65 219 0.0 1.0 0.22 1.82 1.09 89 1010.4
20260509163059 65 11 0.0 1.0 0.25 1.77 1.04 89 1010.9
20260509161556 65 8 0.0 1.0 0.23 1.75 1.02 89 1011.0
20260509160053 65 343 0.0 2.0 0.18 1.70 0.97 89 1011.3
20260509154550 65 98 0.0 1.0 0.07 1.59 0.86 89 1011.1
20260509153049 66 27 0.0 1.0 0.00 1.52 0.79 89 1010.5
20260509151548 66 336 0.0 4.0 0.01 1.52 0.79 89 1010.7
20260509150047 66 283 0.0 1.0 0.02 1.52 0.79 89 1010.4
20260509144549 67 250 0.0 3.0 0.15 1.52 0.79 89 1010.4
20260509143046 67 228 0.0 3.0 0.24 1.52 0.79 89 1010.4
20260509141548 67 239 0.0 4.0 0.75 1.51 0.78 89 1010.6
20260509140045 67 231 0.0 1.0 0.77 1.50 0.77 89 1011.2
20260509134552 66 188 0.0 5.0 0.64 1.37 0.64 89 1010.8
20260509133042 66 211 1.0 5.0 0.54 1.27 0.54 89 1010.4
20260509131555 68 124 0.0 8.0 0.01 0.74 0.01 89 1010.6
20260509130048 73 214 0.0 5.0 0.00 0.73 0.00 89 1008.7
20260509124541 72 101 0.0 5.0 0.00 0.73 0.00 89 1008.3
20260509123038 74 7 2.0 6.0 0.00 0.73 0.00 94 1008.0
20260509121531 74 58 0.0 3.0 0.00 0.73 0.00 94 1008.0
20260509120026 73 146 1.0 5.0 0.00 0.73 0.00 93 1007.8
20260509114523 73 116 0.0 4.0 0.00 0.73 0.00 93 1007.8
20260509113022 73 54 2.0 6.0 0.00 0.73 0.00 92 1007.6
20260509111517 73 83 3.0 0.0 0.00 0.73 0.00 1007.2
20260509110020 0 0.0 0.0 0.00 0.73 0.00 1007.3
20260509104508 0 0.0 0.0 0.00 0.73 0.00 1007.1
20260509103004 0 0.0 0.0 0.00 0.73 0.00 1006.8
20260509101600 0 0.0 0.0 0.00 0.73 0.00 1006.7
20260509100055 0 0.0 0.0 0.00 0.73 0.00 1006.6
20260509094555 0 0.0 0.0 0.00 0.73 0.00 1006.7
20260509093048 0 0.0 0.0 0.00 0.73 0.00 1006.9
20260509091542 0 0.0 0.0 0.00 0.73 0.00 1006.9
20260509090046 68 342 0.0 2.0 0.00 0.73 0.00 89 1007.0
20260509084539 68 145 0.0 2.0 0.00 0.73 0.00 89 1007.4
20260509083043 68 324 0.0 1.0 0.00 0.73 0.00 89 1007.8
20260509081541 67 5 0.0 1.0 0.00 0.73 0.00 89 1007.9
20260509080032 68 238 0.0 1.0 0.00 0.73 0.00 89 1008.4
20260509074529 68 235 0.0 1.0 0.00 0.73 0.00 89 1008.1
20260509073026 68 226 0.0 1.0 0.00 0.73 0.00 89 1008.8
20260509071525 68 226 0.0 1.0 0.00 0.73 0.00 89 1008.9
20260509070023 68 226 0.0 0.0 0.00 0.73 0.00 89 1009.1
20260509064522 68 226 0.0 0.0 0.00 0.73 0.00 89 1009.3
20260509063022 68 226 0.0 1.0 0.00 0.73 0.00 89 1009.6
20260509061521 68 226 0.0 1.0 0.00 0.73 0.00 89 1009.1
20260509060019 68 226 0.0 0.0 0.00 0.73 0.00 89 1009.6
20260509054525 68 226 0.0 0.0 0.00 0.73 0.00 89 1010.0
20260509053038 68 226 0.0 1.0 0.00 0.73 0.00 89 1009.4
20260509051518 68 226 0.0 1.0 0.00 0.73 0.00 89 1009.6
20260509050033 68 159 0.0 0.0 0.00 0.73 0.00 89 1009.4
20260509044517 68 159 0.0 1.0 0.00 0.73 0.73 89 1009.6
20260509043012 68 162 0.0 1.0 0.00 0.73 0.73 89 1009.2
20260509041512 68 183 0.0 2.0 0.00 0.73 0.73 89 1009.2
20260509040011 68 214 0.0 3.0 0.00 0.73 0.73 89 1009.0
20260509034511 68 166 0.0 4.0 0.00 0.73 0.73 89 1008.8
20260509033010 68 172 0.0 1.0 0.00 0.73 0.73 89 1008.8
20260509031510 68 355 0.0 0.0 0.00 0.73 0.73 89 1009.2
20260509030022 68 355 0.0 0.0 0.00 0.73 0.73 89 1009.3
20260509024508 69 155 0.0 1.0 0.00 0.73 0.73 98 1009.0
20260509023019 69 155 0.0 3.0 0.00 0.73 0.73 98 1008.8
20260509021508 69 160 0.0 4.0 0.00 0.73 0.73 98 1008.3
20260509020007 69 147 0.0 4.0 0.00 0.73 0.73 98 1008.7
20260509014506 69 131 0.0 4.0 0.00 0.73 0.73 98 1008.4
20260509013007 69 172 1.0 7.0 0.00 0.73 0.73 97 1008.2
20260509011506 69 215 1.0 6.0 0.00 0.73 0.73 97 1008.5
20260509010012 69 145 0.0 5.0 0.00 0.73 0.73 97 1008.4
20260509004503 69 120 0.0 3.0 0.00 0.73 0.73 97 1008.6
20260509003002 69 170 0.0 1.0 0.00 0.73 0.73 97 1008.7
20260509001607 69 135 0.0 0.0 0.00 0.73 0.73 98 1008.8
20260509000112 69 135 0.0 0.0 0.00 0.73 0.73 97 1009.2
20260508234558 69 136 0.0 1.0 0.00 0.73 0.73 97 1009.3
20260508233058 69 165 0.0 4.0 0.02 0.73 0.73 97 1009.1
20260508231558 69 127 0.0 3.0 0.02 0.73 0.73 97 1009.0
20260508230057 68 169 0.0 4.0 0.02 0.73 0.73 97 1009.1
20260508224657 68 170 1.0 6.0 0.03 0.73 0.73 97 1009.2
20260508223056 68 98 0.0 5.0 0.01 0.71 0.71 97 1009.7
20260508221555 68 150 0.0 4.0 0.02 0.71 0.71 97 1009.1
20260508220054 68 181 2.0 6.0 0.11 0.71 0.71 96 1009.3
20260508214554 68 179 0.0 3.0 0.28 0.70 0.70 96 1010.1
20260508213051 68 201 2.0 5.0 0.68 0.70 0.70 96 1010.4
20260508211550 68 193 2.0 6.0 0.69 0.69 0.69 95 1010.6
20260508210050 68 149 2.0 8.0 0.57 0.57 0.57 94 1010.8
20260508204547 69 162 1.0 5.0 0.41 0.41 0.41 93 1010.7
20260508203050 70 214 3.0 8.0 0.01 0.01 0.01 91 1009.9
20260508201543 70 256 5.0 11.0 0.00 0.00 0.00 88 1010.0
20260508200055 72 205 4.0 8.0 0.00 0.00 0.00 87 1009.4
20260508194541 73 266 4.0 8.0 0.00 0.00 0.00 87 1010.0
20260508193044 74 184 0.0 5.0 0.00 0.00 0.00 87 1010.6
20260508191541 75 269 1.0 7.0 0.00 0.00 0.00 85 1010.6
20260508190044 76 149 1.0 5.0 0.00 0.00 0.00 84 1010.4
20260508184544 77 250 1.0 6.0 0.00 0.00 0.00 84 1010.2
20260508183043 77 196 1.0 3.0 0.00 0.00 0.00 83 1010.2